Regional Weather Roundup
Issued by NWS

Home | Current Version | Previous Version | Graphics & Text | Print | Product List | Glossary On
Versions: 1 2 3 4 5 6 7 8 9 10 11 12 13 14 15 16 17 18 19 20 21 22 23 24 25 26 27 28 29 30 31 32 33 34 35 36 37 38 39 40 41 42 43 44 45 46 47 48 49 50
767
ASUS43 KLSX 260210
RWRMO

WEATHER SUMMARY FOR MISSOURI
NATIONAL WEATHER SERVICE SPRINGFIELD MO
900 PM CDT THU AUG 25 2016

NOTE: "FAIR" INDICATES FEW OR NO CLOUDS BELOW 12,000 FEET WITH NO
       SIGNIFICANT WEATHER AND/OR OBSTRUCTIONS TO VISIBILITY.
       CURRENT SKY AND/OR WEATHER CONDITIONS ARE NOT AVAILABLE FOR
       CHILLICOTHE AND FARMINGTON.

MOZ001>031-035>038-043-044-053-054-260300-
...NORTHERN AND WESTERN MISSOURI...

CITY           SKY/WX    TMP DP  RH WIND       PRES   REMARKS
KANSAS CTY INT CLOUDY    73  66  78 NE8       30.08R
KANSAS C DTWN  LGT RAIN  75  70  84 N10       30.06R
LEE`S SUMMIT   CLOUDY    75  70  84 NE10      30.08R
ST JOSEPH      CLOUDY    68  64  87 N7        30.10R
CHILLICOTHE      N/A     73  68  84 CALM      30.10R
KIRKSVILLE     CLOUDY    71  65  81 N7        30.10R

$$
MOZ066>068-077>081-088>096-101>105-260300-
...SOUTHWEST MISSOURI...

CITY           SKY/WX    TMP DP  RH WIND       PRES   REMARKS
SPRINGFIELD    CLOUDY    77  63  61 E10       30.08R
JOPLIN         CLOUDY    74  63  68 SE7       30.03F
BRANSON        CLOUDY    79  72  78 S6        30.09R

$$
MOZ032>034-039>042-045>050-055>058-069>072-260300-
...CENTRAL MISSOURI...

CITY           SKY/WX    TMP DP  RH WIND       PRES   REMARKS
COLUMBIA       CLOUDY    76  73  91 NW7       30.07R
JEFFERSON CITY CLOUDY    78  72  81 NW7       30.05R
ROLLA          CLOUDY    74  73  97 SW3       30.06R
SEDALIA        CLOUDY    80  73  79 NE3       30.06R
WHITEMAN AFB   MOCLDY    77  77 100 NE8       30.05R
OSAGE BEACH    CLOUDY    72  69  90 VRB3      30.06R

$$
MOZ051-052-059>065-260300-
...EAST CENTRAL MISSOURI...

CITY           SKY/WX    TMP DP  RH WIND       PRES   REMARKS
ST LOUIS INTL  CLOUDY    88  71  57 S5        30.04R HX  94
SPIRIT OF STL  CLOUDY    82  76  81 CALM      30.02R
ST CHARLES     CLOUDY    80  77  90 CALM      30.03R

$$
MOZ072>076-082>087-097>100-106>115-260300-
...SOUTH CENTRAL AND SOUTHEAST MISSOURI...

CITY           SKY/WX    TMP DP  RH WIND       PRES   REMARKS
CAPE GIRARDEAU CLEAR     78  73  84 SE3       30.04S
POPLAR BLUFF   PTCLDY    79  76  90 S5        30.05R
WEST PLAINS    CLOUDY    77  71  82 CALM      30.11R

$$




USA.gov is the U.S. government's official web portal to all federal, state and local government web resources and services.